Content
SEND FEEDBACK

Daily
Averages
Monthly
Summary
United States of America

SOUTH LAKE TAHOE, CALIFORNIA


Home > North America > United States > California
Elevation: 6263 feet     Latitude: 38 53N     Longitude: 119 59W

WEATHER
 
SELECT A DAY
Number of Records: 172,806;   Date Range: 1/1/95 - 4/21/14
 
SHARE

PRINT THIS DATA

[ ← Previous Day ]
WEATHER ALMANAC - JANUARY 2, 2013
[ Next Day → ]
[ °C ]   °F
Weather ElementAverageHighLow
Temperature16.5 °F42.1 °F (1:53 pm)-0.9 °F (4:53 am)
Dewpoint6.8 °F23 °F (3:53 pm)-8 °F (5:53 am)
Humidity69.3 %81 % (9:53 am)32 % (1:53 pm)
Barometer30.40 in30.52 in (7:53 am)30.27 in (1:53 pm)
Wind Speed2.5 mph5.8 mph (1:53 am)
Weather ElementAverage
Visibility9.7 mi
Wind DirectionE (84.8 °)

Weather ElementTotal
Precipitation---
Heating Degree Days44.4 (Base 65)
Averaged from 23 records on January 2, 2013
WEATHER CONDITIONS BREAKOUT
WIND DIRECTION BREAKOUT
WEATHER BY HOUR - JANUARY 2, 2013
[ °C ]   °F
Local TimeTemperatureDewpointHumidityBarometerVisibilityWind DirectionWind SpeedGust SpeedPrecipitationEventsConditions
1:53 AM1.9 °F-4.0 °F76 %30.42 in9.0 miSouth (170°)5.8 mphClear
2:53 AM1.0 °F-5.1 °F75 %30.43 in9.0 miSSW (200°)4.6 mphClear
3:53 AM1.0 °F-5.1 °F75 %30.45 in10.0 miSouth (190°)5.8 mphClear
4:53 AM-0.9 °F-6.0 °F79 %30.46 in10.0 miCalmClear
5:53 AM-0.9 °F-8.0 °F72 %30.46 in10.0 miSouth (190°)5.8 mphClear
6:53 AM1.0 °F-4.0 °F79 %30.49 in10.0 miCalmClear
7:53 AM1.0 °F-5.1 °F75 %30.52 in10.0 miSSW (210°)4.6 mphClear
8:53 AM6.1 °F1.0 °F80 %30.51 in10.0 miSouth (190°)3.5 mphClear
9:53 AM16.0 °F10.9 °F81 %30.47 in10.0 miSouth (180°)3.5 mphClear
10:53 AM30.0 °F12.9 °F49 %30.36 in10.0 miCalmClear
11:53 AM37.0 °F14.0 °F39 %30.32 in10.0 miCalmClear
12:53 PM37.9 °F12.9 °F36 %30.30 in10.0 miCalmClear
1:53 PM42.1 °F14.0 °F32 %30.27 in10.0 miNNE (30°)5.8 mphClear
2:53 PM42.1 °F15.1 °F34 %30.27 in10.0 miNNE (20°)4.6 mphClear
3:53 PM32.0 °F23.0 °F69 %30.33 in10.0 miCalmClear
4:53 PM25.0 °F19.0 °F78 %30.39 in10.0 miCalmClear
5:53 PM24.1 °F19.0 °F81 %30.40 in10.0 miCalmClear
6:53 PM19.0 °F14.0 °F81 %30.43 in10.0 miSouth (190°)4.6 mphClear
7:53 PM18.0 °F12.9 °F81 %30.45 in8.0 miCalmClear
8:53 PM15.1 °F10.0 °F80 %30.43 in10.0 miCalmClear
9:53 PM12.0 °F7.0 °F80 %30.39 in10.0 miCalmClear
10:53 PM10.9 °F6.1 °F81 %30.31 in9.0 miSSW (200°)3.5 mphClear
11:53 PM8.1 °F3.0 °F80 %30.28 in8.0 miSouth (180°)4.6 mphClear
Hourly data recorded from KTVL, located 0.96 miles away from South Lake Tahoe, California







STORIES FROM OUR PARTNERS